When you browse on this site, cookies collect data to enhance your experience and personalize the content and advertising you see.
Visit our Privacy Policy to learn more. By continuing to use the site, you agree to this use of cookies and data.
  • In Hungary
  • List of Countries
  • For 7 days
  • Water Temperature
  • Weather Map
  • News
  • Weather Widgets
  • user-avatar
    Login

    Hourly Weather Nakhal

    Today, 10 December, Tuesday

    Time Temperature Precipitation Wind Pressure Humidity
    00:00 +22°C° 0 mm 0 mps 728 mmHg 75%
    01:00 +22°C° 0 mm 0 mps 728 mmHg 75%
    02:00 +22°C° 0 mm 0 mps 728 mmHg 76%
    03:00 +21°C° 0 mm 0 mps 727 mmHg 76%
    04:00 +21°C° 0 mm 0 mps 727 mmHg 76%
    05:00 +21°C° 0 mm 0 mps 728 mmHg 76%
    06:00 +21°C° 0 mm 0 mps 728 mmHg 76%
    07:00 +21°C° 0 mm 0 mps 729 mmHg 75%
    08:00 +22°C° 0 mm 0 mps 729 mmHg 69%
    09:00 +23°C° 0 mm 0 mps 729 mmHg 63%
    10:00 +24°C° 0 mm 0 mps 729 mmHg 56%
    11:00 +27°C° 0 mm 1 mps 728 mmHg 51%
    12:00 +28°C° 0 mm 2 mps 728 mmHg 47%
    13:00 +29°C° 0 mm 2 mps 727 mmHg 43%
    14:00 +29°C° 0 mm 3 mps 727 mmHg 47%
    15:00 +28°C° 0 mm 3 mps 726 mmHg 51%
    16:00 +28°C° 0 mm 3 mps 726 mmHg 56%
    17:00 +27°C° 0 mm 3 mps 726 mmHg 60%
    18:00 +26°C° 0 mm 2 mps 727 mmHg 64%
    19:00 +26°C° 0 mm 1 mps 727 mmHg 69%
    20:00 +25°C° 0 mm 1 mps 727 mmHg 69%
    21:00 +25°C° 0 mm 1 mps 727 mmHg 70%
    22:00 +23°C° 0 mm 0 mps 727 mmHg 71%
    23:00 +25°C° 0 mm 1 mps 727 mmHg 69%

    Tomorrow, 11 December, Wednesday

    Time Temperature Precipitation Wind Pressure Humidity
    00:00 +25°C° 0 mm 1 mps 727 mmHg 68%
    01:00 +24°C° 0 mm 1 mps 726 mmHg 67%
    02:00 +24°C° 0 mm 1 mps 726 mmHg 68%
    03:00 +24°C° 0 mm 1 mps 726 mmHg 68%
    04:00 +23°C° 0 mm 1 mps 726 mmHg 69%
    05:00 +23°C° 0 mm 1 mps 726 mmHg 69%
    06:00 +23°C° 0 mm 1 mps 726 mmHg 69%
    07:00 +23°C° 0 mm 1 mps 726 mmHg 69%
    08:00 +24°C° 0 mm 1 mps 727 mmHg 62%
    09:00 +25°C° 0 mm 1 mps 727 mmHg 55%
    10:00 +27°C° 0 mm 1 mps 727 mmHg 48%
    11:00 +27°C° 0 mm 1 mps 726 mmHg 47%
    12:00 +28°C° 0 mm 2 mps 726 mmHg 45%
    13:00 +28°C° 0 mm 2 mps 725 mmHg 44%
    14:00 +28°C° 0.1 mm 2 mps 725 mmHg 49%
    15:00 +27°C° 0.1 mm 2 mps 724 mmHg 54%
    16:00 +26°C° 0.1 mm 2 mps 724 mmHg 59%
    17:00 +26°C° 0 mm 2 mps 724 mmHg 61%
    18:00 +25°C° 0 mm 1 mps 725 mmHg 64%
    19:00 +25°C° 0 mm 1 mps 725 mmHg 67%
    20:00 +23°C° 0 mm 0 mps 725 mmHg 68%
    21:00 +23°C° 0 mm 0 mps 725 mmHg 68%
    22:00 +23°C° 0 mm 0 mps 725 mmHg 69%
    23:00 +22°C° 0 mm 0 mps 724 mmHg 69%

    Day after tomorrow, 12 December, Thursday

    Time Temperature Precipitation Wind Pressure Humidity
    00:00 +22°C° 0 mm 0 mps 724 mmHg 69%
    01:00 +22°C° 0 mm 0 mps 724 mmHg 69%
    02:00 +21°C° 0 mm 0 mps 724 mmHg 69%
    03:00 +21°C° 0 mm 0 mps 724 mmHg 69%
    04:00 +21°C° 0 mm 0 mps 723 mmHg 69%
    05:00 +21°C° 0 mm 0 mps 724 mmHg 70%
    06:00 +21°C° 0 mm 0 mps 724 mmHg 70%
    07:00 +20°C° 0 mm 0 mps 725 mmHg 71%
    08:00 +24°C° 0 mm 1 mps 725 mmHg 65%
    09:00 +25°C° 0 mm 1 mps 725 mmHg 60%
    10:00 +26°C° 0 mm 1 mps 725 mmHg 54%
    11:00 +27°C° 0 mm 2 mps 725 mmHg 51%
    12:00 +28°C° 0 mm 3 mps 724 mmHg 47%
    13:00 +29°C° 0 mm 4 mps 724 mmHg 43%
    14:00 +28°C° 0 mm 4 mps 724 mmHg 44%
    15:00 +27°C° 0 mm 3 mps 723 mmHg 45%
    16:00 +27°C° 0 mm 3 mps 723 mmHg 46%
    17:00 +26°C° 0 mm 3 mps 723 mmHg 48%
    18:00 +25°C° 0 mm 2 mps 724 mmHg 49%
    19:00 +24°C° 0 mm 2 mps 724 mmHg 51%
    20:00 +24°C° 0 mm 2 mps 724 mmHg 54%
    21:00 +23°C° 0 mm 2 mps 725 mmHg 56%
    22:00 +23°C° 0 mm 1 mps 725 mmHg 58%
    23:00 +22°C° 0 mm 1 mps 725 mmHg 61%

    13 December, Friday

    Time Temperature Precipitation Wind Pressure Humidity
    00:00 +22°C° 0 mm 1 mps 724 mmHg 64%
    01:00 +21°C° 0 mm 1 mps 724 mmHg 67%
    02:00 +21°C° 0 mm 1 mps 724 mmHg 68%
    03:00 +21°C° 0 mm 1 mps 724 mmHg 69%
    04:00 +20°C° 0 mm 1 mps 724 mmHg 70%
    05:00 +20°C° 0 mm 1 mps 724 mmHg 70%
    06:00 +20°C° 0 mm 1 mps 725 mmHg 69%
    07:00 +20°C° 0 mm 1 mps 725 mmHg 68%
    08:00 +21°C° 0 mm 1 mps 726 mmHg 60%
    09:00 +23°C° 0 mm 1 mps 726 mmHg 53%
    10:00 +24°C° 0 mm 1 mps 726 mmHg 45%
    11:00 +25°C° 0 mm 1 mps 726 mmHg 42%
    12:00 +26°C° 0 mm 2 mps 726 mmHg 39%
    13:00 +27°C° 0 mm 2 mps 725 mmHg 35%
    14:00 +27°C° 0 mm 3 mps 725 mmHg 39%
    15:00 +26°C° 0 mm 3 mps 725 mmHg 43%
    16:00 +26°C° 0 mm 4 mps 725 mmHg 46%
    17:00 +25°C° 0 mm 3 mps 725 mmHg 51%
    18:00 +24°C° 0 mm 2 mps 725 mmHg 55%
    19:00 +23°C° 0 mm 1 mps 726 mmHg 60%
    20:00 +23°C° 0 mm 1 mps 726 mmHg 60%
    21:00 +23°C° 0 mm 1 mps 726 mmHg 60%
    22:00 +23°C° 0 mm 1 mps 727 mmHg 61%
    23:00 +23°C° 0 mm 1 mps 726 mmHg 61%

    14 December, Saturday

    Time Temperature Precipitation Wind Pressure Humidity
    00:00 +23°C° 0 mm 1 mps 726 mmHg 61%
    01:00 +23°C° 0 mm 1 mps 726 mmHg 61%
    02:00 +22°C° 0 mm 1 mps 726 mmHg 61%
    03:00 +22°C° 0 mm 1 mps 726 mmHg 62%
    04:00 +20°C° 0 mm 0 mps 726 mmHg 62%
    05:00 +22°C° 0 mm 1 mps 726 mmHg 62%
    06:00 +22°C° 0 mm 1 mps 727 mmHg 61%
    07:00 +22°C° 0 mm 1 mps 727 mmHg 60%
    08:00 +24°C° 0 mm 1 mps 728 mmHg 55%
    09:00 +25°C° 0 mm 1 mps 728 mmHg 50%
    10:00 +26°C° 0 mm 1 mps 729 mmHg 44%
    11:00 +27°C° 0 mm 1 mps 728 mmHg 42%
    12:00 +28°C° 0 mm 2 mps 728 mmHg 41%
    13:00 +28°C° 0 mm 2 mps 727 mmHg 39%
    14:00 +28°C° 0 mm 3 mps 727 mmHg 40%
    15:00 +28°C° 0 mm 3 mps 727 mmHg 41%
    16:00 +28°C° 0 mm 3 mps 727 mmHg 42%
    17:00 +27°C° 0 mm 2 mps 727 mmHg 46%
    18:00 +26°C° 0 mm 2 mps 727 mmHg 51%
    19:00 +26°C° 0 mm 1 mps 727 mmHg 55%
    20:00 +25°C° 0 mm 1 mps 728 mmHg 57%
    21:00 +23°C° 0 mm 0 mps 728 mmHg 60%
    22:00 +23°C° 0 mm 0 mps 728 mmHg 62%
    23:00 +22°C° 0 mm 0 mps 728 mmHg 63%

    15 December, Sunday

    Time Temperature Precipitation Wind Pressure Humidity
    00:00 +22°C° 0 mm 0 mps 728 mmHg 63%
    01:00 +21°C° 0 mm 0 mps 727 mmHg 64%
    02:00 +21°C° 0 mm 0 mps 727 mmHg 65%
    03:00 +21°C° 0 mm 0 mps 727 mmHg 65%
    04:00 +20°C° 0 mm 0 mps 727 mmHg 66%
    05:00 +20°C° 0 mm 0 mps 727 mmHg 66%
    06:00 +20°C° 0 mm 0 mps 727 mmHg 66%
    07:00 +20°C° 0 mm 0 mps 728 mmHg 66%
    08:00 +21°C° 0 mm 0 mps 728 mmHg 60%
    09:00 +25°C° 0 mm 1 mps 729 mmHg 54%
    10:00 +26°C° 0 mm 1 mps 729 mmHg 49%
    11:00 +27°C° 0 mm 2 mps 728 mmHg 47%
    12:00 +27°C° 0 mm 2 mps 728 mmHg 45%
    13:00 +28°C° 0 mm 3 mps 727 mmHg 44%
    14:00 +28°C° 0 mm 3 mps 727 mmHg 46%
    15:00 +28°C° 0 mm 3 mps 727 mmHg 48%
    16:00 +27°C° 0 mm 3 mps 727 mmHg 50%
    17:00 +27°C° 0 mm 3 mps 727 mmHg 53%
    18:00 +26°C° 0 mm 2 mps 727 mmHg 57%
    19:00 +25°C° 0 mm 1 mps 727 mmHg 61%
    20:00 +25°C° 0 mm 1 mps 728 mmHg 61%
    21:00 +25°C° 0 mm 1 mps 728 mmHg 62%
    22:00 +23°C° 0 mm 0 mps 728 mmHg 63%
    23:00 +22°C° 0 mm 0 mps 728 mmHg 65%
    Show more